Home > Weather > Pretoria > Past weeks

Flag for South Africa Past Weather in Pretoria, South Africa — Yesterday and Last 2 Weeks

Now
63 °F

Mild.


Feels Like: 63 °F
Forecast: 36 / 65 °F
Wind: 10 mph from West

Location: Waterkloof Lmb

Current Time: Jul 28, 2016 at 4:32:28 PM

Latest Report: Jul 28, 2016 at 4:00 PM


Visibility: N/A

Pressure: 30.15 "Hg (25.75 "Hg at 1338m altitude)

Humidity: 24%

Dew Point: 25 °F

Location of PretoriaLocation

Past Weather in Pretoria — Graph

°F

Pretoria Temperature Yesterday

Maximum temperature yesterday: 59 °F (at 3:00 PM)
Minimum temperature yesterday: 32 °F (at 7:00 AM)
Average temperature yesterday: 46 °F

High & Low Weather Summary for the Past Weeks

 TemperatureHumidityPressure
High73 °F (Jul 21, 1:00 PM)94% (Jul 26, 5:00 AM)30.54 "Hg (Jul 26, 5:00 AM)
Low32 °F (Jul 27, 7:00 AM)10% (Jul 23, 1:00 PM)30.01 "Hg (Jul 26, 5:00 PM)
Average53 °F48%30.28 "Hg
* Reported Jul 13 4:00 PM — Jul 28 3:00 PM, Pretoria, Weather by CustomWeather, © 2016

Note: Actual official high and low records may vary slightly from our data, if they occured in-between our weather recording intervals... More about our weather records

Advertising

Pretoria Weather History for the Previous 24 Hours

Scroll right to see more
 ConditionsComfort  
Time TempWeatherWind HumidityBarometerVisibility
3:00 PM
Thu, Jul 28
64 °FMild.9 mph21%30.15 "HgN/A
2:00 PM63 °FMild.6 mph22%30.15 "HgN/A
1:00 PM61 °FRefreshingly cool.7 mph23%30.18 "HgN/A
12:00 PM59 °FRefreshingly cool.9 mph25%30.21 "HgN/A
11:00 AM55 °FRefreshingly cool.13 mph23%30.21 "HgN/A
10:00 AM54 °FCool.8 mph24%30.24 "HgN/A
9:00 AM48 °FCool.5 mph29%30.21 "HgN/A
8:00 AM45 °FQuite cool.2 mph53%30.24 "HgN/A
7:00 AM34 °FChilly.1 mph65%30.21 "HgN/A
6:00 AM32 °FChilly.2 mph75%30.18 "HgN/A
5:00 AM32 °FChilly.2 mph69%30.18 "HgN/A
3:00 AM34 °FChilly.No wind70%30.18 "HgN/A
2:00 AM37 °FChilly.1 mph60%30.18 "HgN/A
1:00 AM36 °FChilly.1 mph70%30.18 "HgN/A
12:00 AM37 °FChilly.No wind60%30.18 "HgN/A
11:00 PM
Wed, Jul 27
37 °FChilly.1 mph60%30.18 "HgN/A
10:00 PM43 °FQuite cool.3 mph39%30.15 "HgN/A
9:00 PM45 °FQuite cool.No wind34%30.18 "HgN/A
8:00 PM46 °FCool.3 mph29%30.15 "HgN/A
7:00 PM46 °FCool.5 mph27%30.15 "HgN/A
6:00 PM50 °FCool.7 mph20%30.12 "HgN/A
5:00 PM55 °FRefreshingly cool.8 mph16%30.12 "HgN/A
4:00 PM57 °FRefreshingly cool.9 mph13%30.09 "HgN/A
Weather by CustomWeather, © 2016

See weather overviewHow to use our weather pages